Time,TemperatureF,DewpointF,PressureIn,WindDirection,WindDirectionDegrees,WindSpeedMPH,WindSpeedGustMPH,Humidity,HourlyPrecipIn,Conditions,Clouds,dailyrainin,SoftwareType,DateUTC
2013-02-14 00:02:00,30.0,28.0,29.70,WSW,238,0.0,0.0,92,0.00,,,0.01,,2013-02-14 05:02:00,
2013-02-14 00:11:00,30.0,28.0,29.70,WSW,238,0.0,0.0,92,0.00,,,0.01,,2013-02-14 05:11:00,
2013-02-14 00:22:00,30.0,28.0,29.71,WSW,238,0.0,0.0,92,0.00,,,0.01,,2013-02-14 05:22:00,
2013-02-14 00:32:00,30.0,28.0,29.71,WSW,238,0.0,0.0,93,0.00,,,0.01,,2013-02-14 05:32:00,
2013-02-14 00:42:00,30.0,28.0,29.71,WSW,238,0.0,0.0,93,0.00,,,0.01,,2013-02-14 05:42:00,
2013-02-14 00:52:00,29.0,27.0,29.71,WSW,238,0.0,1.0,93,0.00,,,0.01,,2013-02-14 05:52:00,
2013-02-14 01:02:00,29.0,27.0,29.71,WSW,238,0.0,0.0,93,0.00,,,0.01,,2013-02-14 06:02:00,
2013-02-14 01:11:00,29.0,27.0,29.71,WSW,238,0.0,1.0,93,0.00,,,0.01,,2013-02-14 06:11:00,
2013-02-14 01:21:00,29.0,27.0,29.71,WSW,238,0.0,1.0,93,0.00,,,0.01,,2013-02-14 06:21:00,
2013-02-14 01:32:00,29.0,27.0,29.70,WSW,238,0.0,1.0,93,0.00,,,0.01,,2013-02-14 06:32:00,
2013-02-14 01:42:00,29.0,27.0,29.70,WSW,238,0.0,1.0,93,0.00,,,0.01,,2013-02-14 06:42:00,
2013-02-14 01:51:00,28.0,26.0,29.70,WSW,238,0.0,0.0,93,0.00,,,0.01,,2013-02-14 06:51:00,
2013-02-14 02:01:00,28.0,26.0,29.70,WSW,238,0.0,0.0,93,0.00,,,0.01,,2013-02-14 07:01:00,
2013-02-14 02:11:00,28.0,27.0,29.70,WSW,238,0.0,0.0,94,0.00,,,0.01,,2013-02-14 07:11:00,
2013-02-14 02:21:00,28.0,27.0,29.70,WSW,238,0.0,0.0,94,0.00,,,0.01,,2013-02-14 07:21:00,
2013-02-14 02:32:00,28.0,27.0,29.70,WSW,238,0.0,0.0,94,0.00,,,0.01,,2013-02-14 07:32:00,
2013-02-14 02:42:00,28.0,27.0,29.70,WSW,238,0.0,0.0,94,0.00,,,0.01,,2013-02-14 07:42:00,
2013-02-14 02:52:00,28.0,27.0,29.70,WSW,238,0.0,0.0,94,0.00,,,0.01,,2013-02-14 07:52:00,
2013-02-14 03:01:00,28.0,27.0,29.70,WSW,238,0.0,0.0,94,0.00,,,0.01,,2013-02-14 08:01:00,
2013-02-14 03:11:00,28.0,27.0,29.70,WSW,238,0.0,0.0,94,0.00,,,0.01,,2013-02-14 08:11:00,
2013-02-14 03:21:00,28.0,27.0,29.70,WSW,238,0.0,0.0,94,0.00,,,0.01,,2013-02-14 08:21:00,
2013-02-14 03:32:00,28.0,27.0,29.69,WSW,238,0.0,0.0,94,0.00,,,0.01,,2013-02-14 08:32:00,
2013-02-14 03:43:00,28.0,27.0,29.69,WSW,238,0.0,0.0,94,0.00,,,0.01,,2013-02-14 08:43:00,
2013-02-14 03:52:00,28.0,27.0,29.69,WSW,238,0.0,0.0,94,0.00,,,0.01,,2013-02-14 08:52:00,
2013-02-14 04:02:00,28.0,27.0,29.68,WSW,238,0.0,0.0,94,0.00,,,0.01,,2013-02-14 09:02:00,
2013-02-14 04:11:00,28.0,27.0,29.68,WSW,238,0.0,0.0,94,0.00,,,0.01,,2013-02-14 09:11:00,
2013-02-14 04:21:00,28.0,27.0,29.68,WSW,238,0.0,0.0,94,0.00,,,0.01,,2013-02-14 09:21:00,
2013-02-14 04:32:00,27.0,26.0,29.68,WSW,238,0.0,0.0,94,0.00,,,0.01,,2013-02-14 09:32:00,
2013-02-14 04:42:00,27.0,26.0,29.68,WSW,238,0.0,0.0,94,0.00,,,0.01,,2013-02-14 09:42:00,
2013-02-14 04:52:00,28.0,27.0,29.68,WSW,238,0.0,0.0,95,0.00,,,0.01,,2013-02-14 09:52:00,
2013-02-14 05:02:00,28.0,27.0,29.67,WSW,238,0.0,1.0,95,0.00,,,0.01,,2013-02-14 10:02:00,
2013-02-14 05:11:00,28.0,27.0,29.67,WSW,238,0.0,0.0,95,0.00,,,0.01,,2013-02-14 10:11:00,
2013-02-14 05:21:00,28.0,27.0,29.67,WSW,238,0.0,0.0,95,0.00,,,0.01,,2013-02-14 10:21:00,
2013-02-14 05:32:00,28.0,27.0,29.67,WSW,238,0.0,0.0,95,0.00,,,0.01,,2013-02-14 10:32:00,
2013-02-14 05:42:00,28.0,27.0,29.67,WSW,238,0.0,0.0,95,0.00,,,0.01,,2013-02-14 10:42:00,
2013-02-14 05:52:00,28.0,27.0,29.67,WSW,238,0.0,0.0,95,0.00,,,0.01,,2013-02-14 10:52:00,
2013-02-14 06:02:00,28.0,27.0,29.67,WSW,238,0.0,1.0,95,0.00,,,0.01,,2013-02-14 11:02:00,
2013-02-14 06:11:00,28.0,27.0,29.67,WSW,238,0.0,2.0,95,0.00,,,0.01,,2013-02-14 11:11:00,
2013-02-14 06:21:00,28.0,27.0,29.67,WSW,238,0.0,2.0,95,0.00,,,0.01,,2013-02-14 11:21:00,
2013-02-14 06:32:00,29.0,28.0,29.66,WSW,238,0.0,1.0,95,0.00,,,0.01,,2013-02-14 11:32:00,
2013-02-14 06:42:00,29.0,28.0,29.66,WSW,238,0.0,1.0,95,0.00,,,0.01,,2013-02-14 11:42:00,
2013-02-14 06:52:00,29.0,28.0,29.66,WSW,238,0.0,1.0,95,0.00,,,0.01,,2013-02-14 11:52:00,
2013-02-14 07:02:00,30.0,29.0,29.66,WSW,238,0.0,0.0,95,0.00,,,0.01,,2013-02-14 12:02:00,
2013-02-14 07:12:00,30.0,29.0,29.66,WSW,238,0.0,0.0,95,0.00,,,0.01,,2013-02-14 12:12:00,
2013-02-14 07:22:00,30.0,29.0,29.65,WSW,238,0.0,0.0,95,0.00,,,0.01,,2013-02-14 12:22:00,
2013-02-14 07:32:00,30.0,29.0,29.65,WSW,238,0.0,1.0,95,0.00,,,0.01,,2013-02-14 12:32:00,
2013-02-14 07:42:00,30.0,29.0,29.65,WSW,238,0.0,1.0,95,0.00,,,0.01,,2013-02-14 12:42:00,
2013-02-14 07:53:00,31.0,30.0,29.65,WSW,238,0.0,1.0,95,0.00,,,0.01,,2013-02-14 12:53:00,
2013-02-14 08:02:00,32.0,31.0,29.65,WSW,238,1.0,2.0,96,0.00,,,0.01,,2013-02-14 13:02:00,
2013-02-14 08:11:00,32.0,31.0,29.65,WSW,238,1.0,2.0,96,0.00,,,0.01,,2013-02-14 13:11:00,
2013-02-14 08:21:00,32.0,31.0,29.64,WSW,238,0.0,0.0,95,0.00,,,0.01,,2013-02-14 13:21:00,
2013-02-14 08:32:00,32.0,31.0,29.64,SSW,205,1.0,2.0,95,0.00,,,0.01,,2013-02-14 13:32:00,
2013-02-14 08:42:00,32.0,31.0,29.64,SSW,205,1.0,2.0,95,0.00,,,0.01,,2013-02-14 13:42:00,
2013-02-14 08:51:00,32.0,31.0,29.63,SSE,150,0.0,4.0,95,0.00,,,0.01,,2013-02-14 13:51:00,
2013-02-14 09:01:00,32.0,31.0,29.63,SE,141,1.0,4.0,95,0.00,,,0.01,,2013-02-14 14:01:00,
2013-02-14 09:11:00,32.0,31.0,29.62,ESE,121,0.0,5.0,95,0.00,,,0.01,,2013-02-14 14:11:00,
2013-02-14 09:21:00,32.0,31.0,29.62,ESE,121,0.0,5.0,95,0.00,,,0.01,,2013-02-14 14:21:00,
2013-02-14 09:32:00,33.0,32.0,29.62,ESE,121,0.0,4.0,95,0.00,,,0.01,,2013-02-14 14:32:00,
2013-02-14 09:42:00,33.0,32.0,29.62,ESE,121,0.0,4.0,95,0.00,,,0.01,,2013-02-14 14:42:00,
2013-02-14 09:52:00,33.0,32.0,29.61,WSW,240,1.0,6.0,95,0.00,,,0.01,,2013-02-14 14:52:00,
2013-02-14 10:02:00,34.0,33.0,29.61,WSW,240,0.0,1.0,95,0.00,,,0.01,,2013-02-14 15:02:00,
2013-02-14 10:11:00,34.0,33.0,29.61,WSW,240,0.0,1.0,95,0.00,,,0.01,,2013-02-14 15:11:00,
2013-02-14 10:21:00,35.0,33.0,29.61,SW,225,2.0,4.0,94,0.00,,,0.01,,2013-02-14 15:21:00,
2013-02-14 10:32:00,36.0,33.0,29.60,SW,234,3.0,8.0,90,0.04,,,0.05,,2013-02-14 15:32:00,
2013-02-14 10:42:00,36.0,33.0,29.60,SW,234,3.0,8.0,90,0.04,,,0.05,,2013-02-14 15:42:00,
2013-02-14 10:52:00,37.0,34.0,29.59,SW,232,6.0,13.0,88,0.05,,,0.06,,2013-02-14 15:52:00,
2013-02-14 11:02:00,37.0,33.0,29.60,WNW,286,3.0,9.0,86,0.06,,,0.07,,2013-02-14 16:02:00,
2013-02-14 11:11:00,38.0,34.0,29.59,WSW,256,6.0,12.0,85,0.06,,,0.07,,2013-02-14 16:11:00,
2013-02-14 11:21:00,38.0,34.0,29.59,WSW,256,6.0,12.0,85,0.06,,,0.07,,2013-02-14 16:21:00,
2013-02-14 11:32:00,38.0,34.0,29.59,WSW,256,5.0,13.0,85,0.02,,,0.07,,2013-02-14 16:32:00,
2013-02-14 11:42:00,38.0,34.0,29.59,WSW,256,5.0,13.0,85,0.02,,,0.07,,2013-02-14 16:42:00,
2013-02-14 11:52:00,38.0,34.0,29.59,SW,229,5.0,14.0,85,0.01,,,0.07,,2013-02-14 16:52:00,
2013-02-14 12:01:00,38.0,34.0,29.59,West,267,4.0,12.0,85,0.00,,,0.07,,2013-02-14 17:01:00,
2013-02-14 12:11:00,38.0,34.0,29.59,WNW,294,5.0,9.0,85,0.00,,,0.07,,2013-02-14 17:11:00,
2013-02-14 12:21:00,38.0,34.0,29.59,WNW,294,5.0,9.0,85,0.00,,,0.07,,2013-02-14 17:21:00,
2013-02-14 12:32:00,38.0,34.0,29.59,SW,225,2.0,13.0,85,0.00,,,0.07,,2013-02-14 17:32:00,
2013-02-14 12:42:00,38.0,34.0,29.59,SW,225,2.0,13.0,85,0.00,,,0.07,,2013-02-14 17:42:00,
2013-02-14 12:52:00,38.0,34.0,29.59,West,279,3.0,11.0,85,0.00,,,0.07,,2013-02-14 17:52:00,
2013-02-14 13:01:00,38.0,34.0,29.58,West,273,4.0,12.0,86,0.00,,,0.07,,2013-02-14 18:01:00,
2013-02-14 13:11:00,38.0,34.0,29.58,West,273,4.0,12.0,86,0.00,,,0.07,,2013-02-14 18:11:00,
2013-02-14 13:23:00,37.0,33.0,29.58,West,259,3.0,8.0,86,0.00,,,0.07,,2013-02-14 18:23:00,
2013-02-14 13:32:00,37.0,33.0,29.58,WSW,248,7.0,17.0,86,0.00,,,0.07,,2013-02-14 18:32:00,
2013-02-14 13:42:00,37.0,33.0,29.58,WSW,248,7.0,17.0,86,0.00,,,0.07,,2013-02-14 18:42:00,
2013-02-14 13:52:00,37.0,33.0,29.58,WNW,284,2.0,5.0,86,0.00,,,0.07,,2013-02-14 18:52:00,
2013-02-14 14:02:00,37.0,33.0,29.58,WNW,301,2.0,9.0,86,0.00,,,0.06,,2013-02-14 19:02:00,
2013-02-14 14:11:00,37.0,33.0,29.58,WNW,301,2.0,9.0,86,0.00,,,0.06,,2013-02-14 19:11:00,
2013-02-14 14:22:00,37.0,34.0,29.58,WNW,286,1.0,8.0,87,0.00,,,0.06,,2013-02-14 19:22:00,
2013-02-14 14:32:00,37.0,35.0,29.57,NNW,328,0.0,8.0,92,0.00,,,0.06,,2013-02-14 19:32:00,
2013-02-14 14:42:00,37.0,35.0,29.57,NNW,328,0.0,8.0,92,0.00,,,0.06,,2013-02-14 19:42:00,
2013-02-14 14:52:00,37.0,34.0,29.57,NW,307,1.0,6.0,87,0.00,,,0.06,,2013-02-14 19:52:00,
2013-02-14 15:01:00,36.0,33.0,29.58,WNW,298,3.0,7.0,88,0.00,,,0.06,,2013-02-14 20:01:00,
2013-02-14 15:11:00,36.0,33.0,29.58,NW,310,1.0,4.0,90,0.01,,,0.07,,2013-02-14 20:11:00,
2013-02-14 15:21:00,36.0,33.0,29.58,NW,310,1.0,4.0,90,0.01,,,0.07,,2013-02-14 20:21:00,
2013-02-14 15:32:00,36.0,34.0,29.59,West,267,2.0,6.0,92,0.01,,,0.07,,2013-02-14 20:32:00,
2013-02-14 15:42:00,36.0,34.0,29.59,West,267,2.0,6.0,92,0.01,,,0.07,,2013-02-14 20:42:00,
2013-02-14 15:52:00,35.0,33.0,29.59,WNW,290,2.0,6.0,92,0.01,,,0.07,,2013-02-14 20:52:00,
2013-02-14 16:02:00,35.0,33.0,29.59,NW,311,1.0,5.0,93,0.02,,,0.08,,2013-02-14 21:02:00,
2013-02-14 16:11:00,35.0,33.0,29.59,NW,311,1.0,5.0,93,0.02,,,0.08,,2013-02-14 21:11:00,
2013-02-14 16:21:00,35.0,33.0,29.59,WNW,298,2.0,3.0,93,0.01,,,0.08,,2013-02-14 21:21:00,
2013-02-14 16:32:00,35.0,33.0,29.60,WNW,288,4.0,7.0,93,0.02,,,0.09,,2013-02-14 21:32:00,
2013-02-14 16:42:00,35.0,33.0,29.60,WNW,288,4.0,7.0,93,0.02,,,0.09,,2013-02-14 21:42:00,
2013-02-14 16:52:00,34.0,32.0,29.61,NNW,336,1.0,5.0,93,0.02,,,0.09,,2013-02-14 21:52:00,
2013-02-14 17:02:00,34.0,32.0,29.62,NW,321,2.0,5.0,93,0.01,,,0.09,,2013-02-14 22:02:00,
2013-02-14 17:11:00,34.0,32.0,29.63,WNW,298,2.0,5.0,94,0.02,,,0.10,,2013-02-14 22:11:00,
2013-02-14 17:21:00,34.0,32.0,29.63,WNW,298,2.0,5.0,94,0.02,,,0.10,,2013-02-14 22:21:00,
2013-02-14 17:32:00,34.0,32.0,29.63,West,275,3.0,8.0,94,0.01,,,0.10,,2013-02-14 22:32:00,
2013-02-14 17:42:00,34.0,32.0,29.63,West,275,3.0,8.0,94,0.01,,,0.10,,2013-02-14 22:42:00,
2013-02-14 17:51:00,34.0,32.0,29.63,NW,313,2.0,8.0,94,0.01,,,0.10,,2013-02-14 22:51:00,
2013-02-14 18:01:00,34.0,32.0,29.65,NW,306,2.0,7.0,94,0.01,,,0.10,,2013-02-14 23:01:00,
2013-02-14 18:11:00,34.0,32.0,29.65,NW,306,2.0,7.0,94,0.01,,,0.10,,2013-02-14 23:11:00,
2013-02-14 18:21:00,34.0,32.0,29.66,NW,317,9.0,14.0,94,0.00,,,0.10,,2013-02-14 23:21:00,
2013-02-14 18:32:00,34.0,32.0,29.68,NNW,333,7.0,17.0,93,0.00,,,0.10,,2013-02-14 23:32:00,
2013-02-14 18:42:00,34.0,32.0,29.68,NNW,333,7.0,17.0,93,0.00,,,0.10,,2013-02-14 23:42:00,
2013-02-14 18:52:00,34.0,32.0,29.70,WNW,302,3.0,15.0,92,0.00,,,0.10,,2013-02-14 23:52:00,
2013-02-14 19:01:00,33.0,31.0,29.72,NNW,334,6.0,10.0,92,0.00,,,0.10,,2013-02-15 00:01:00,
2013-02-14 19:11:00,33.0,31.0,29.72,NNW,334,6.0,10.0,92,0.00,,,0.10,,2013-02-15 00:11:00,
2013-02-14 19:22:00,33.0,31.0,29.73,North,355,3.0,8.0,92,0.00,,,0.10,,2013-02-15 00:22:00,
2013-02-14 19:32:00,33.0,31.0,29.74,North,5,1.0,7.0,92,0.00,,,0.10,,2013-02-15 00:32:00,
2013-02-14 19:42:00,33.0,31.0,29.74,North,5,1.0,7.0,92,0.00,,,0.10,,2013-02-15 00:42:00,
2013-02-14 19:51:00,33.0,31.0,29.75,NNW,329,1.0,8.0,93,0.00,,,0.10,,2013-02-15 00:51:00,
2013-02-14 20:02:00,32.0,30.0,29.76,East,94,4.0,12.0,93,0.00,,,0.10,,2013-02-15 01:02:00,
2013-02-14 20:11:00,32.0,30.0,29.76,East,94,4.0,12.0,93,0.00,,,0.10,,2013-02-15 01:11:00,
2013-02-14 20:21:00,32.0,30.0,29.79,NNE,13,8.0,13.0,92,0.00,,,0.10,,2013-02-15 01:21:00,
2013-02-14 20:32:00,31.0,29.0,29.80,NE,34,6.0,15.0,91,0.00,,,0.10,,2013-02-15 01:32:00,
2013-02-14 20:41:00,31.0,29.0,29.80,NE,34,6.0,15.0,91,0.00,,,0.10,,2013-02-15 01:41:00,
2013-02-14 20:52:00,31.0,29.0,29.80,ENE,65,3.0,9.0,91,0.00,,,0.10,,2013-02-15 01:52:00,
2013-02-14 21:01:00,30.0,27.0,29.81,East,94,5.0,13.0,89,0.00,,,0.10,,2013-02-15 02:01:00,
2013-02-14 21:11:00,30.0,27.0,29.81,East,94,5.0,13.0,89,0.00,,,0.10,,2013-02-15 02:11:00,
2013-02-14 21:21:00,30.0,27.0,29.82,SE,139,2.0,11.0,88,0.00,,,0.10,,2013-02-15 02:21:00,
2013-02-14 21:32:00,30.0,27.0,29.83,ENE,76,7.0,11.0,88,0.00,,,0.10,,2013-02-15 02:32:00,
2013-02-14 21:41:00,30.0,27.0,29.83,ENE,76,7.0,11.0,88,0.00,,,0.10,,2013-02-15 02:41:00,
2013-02-14 21:52:00,30.0,27.0,29.83,NE,55,3.0,7.0,87,0.00,,,0.10,,2013-02-15 02:52:00,
2013-02-14 22:02:00,29.0,25.0,29.85,NNE,33,3.0,12.0,86,0.00,,,0.10,,2013-02-15 03:02:00,
2013-02-14 22:11:00,29.0,25.0,29.85,NNE,33,3.0,12.0,86,0.00,,,0.10,,2013-02-15 03:11:00,
2013-02-14 22:22:00,28.0,24.0,29.85,North,349,1.0,9.0,85,0.00,,,0.10,,2013-02-15 03:22:00,
2013-02-14 22:32:00,28.0,24.0,29.86,NNE,32,1.0,7.0,85,0.00,,,0.10,,2013-02-15 03:32:00,
2013-02-14 22:42:00,28.0,24.0,29.86,NNE,32,1.0,7.0,85,0.00,,,0.10,,2013-02-15 03:42:00,
2013-02-14 22:52:00,28.0,24.0,29.86,NNE,33,1.0,6.0,86,0.00,,,0.10,,2013-02-15 03:52:00,
2013-02-14 23:01:00,28.0,24.0,29.87,NNE,15,3.0,10.0,84,0.00,,,0.10,,2013-02-15 04:01:00,
2013-02-14 23:11:00,28.0,24.0,29.87,NNE,15,3.0,10.0,84,0.00,,,0.10,,2013-02-15 04:11:00,
2013-02-14 23:21:00,27.0,23.0,29.88,North,360,0.0,5.0,83,0.00,,,0.10,,2013-02-15 04:21:00,
2013-02-14 23:32:00,26.0,21.0,29.89,ESE,103,2.0,6.0,82,0.00,,,0.10,,2013-02-15 04:32:00,
2013-02-14 23:42:00,26.0,21.0,29.89,ESE,103,2.0,6.0,82,0.00,,,0.10,,2013-02-15 04:42:00,
2013-02-14 23:52:00,26.0,22.0,29.89,ENE,69,1.0,5.0,83,0.00,,,0.10,,2013-02-15 04:52:00,